STARLINK-5741 (55582 NORAD) Tracking and Keplerian Element Data

This shows tracking and keplerian element data for the satellite.

Feedback or suggestion? Click here.




ElementValue
Catalog55582
NameSTARLINK-5741
Epoch Orbit130
Epoch Day84.91667824
Epoch Year2023
RAAN105.8905
Inclination42.9999
Eccentricity0.0001324
Argument of Perigee261.1797
Mean Anonmoly14.9052
Mean Motion15.48919437
Decay Rate0.00012069
L11 55582U 23020P 23084.91667824 .00012069 00000+0 22388-3 0 9995
L22 55582 42.9999 105.8905 0001324 261.1797 14.9052 15.48919437 1306



Live tracking and technical data element details for STARLINK-5741 (NORAD 55582). STARLINK-5741 can be tracked NOW for your location showing map with azimuth and elevation plus other details from your city location.







IsCatalogInMostPopularTable: catalog: 55582, numindb: -1

Insert: records affected: 1


GetName: 55582 STARLINK-5741

Hit Count: inserted at: Tue, 28 Mar 2023 01:32:06 GMT